This is the latest recevied weather packets stored in our database for station/object CA3EVY-3. If no packets are shown the sender has not sent any weather packets the latest 10 day(s).
| Time | Temp. | Humidity | Pressure | Rain* | Wind** | Luminosity | Snow |
|---|---|---|---|---|---|---|---|
| 1777536907 | 14.44° C | 53% | 913.7 hPa | - | - | - | - |
| 1777535110 | 15° C | 53% | 913.6 hPa | - | - | - | - |
| 1777534204 | 15° C | 53% | 913.8 hPa | - | - | - | - |
| 1777533304 | 15° C | 53% | 913.9 hPa | - | - | - | - |
| 1777532410 | 15° C | 53% | 914 hPa | - | - | - | - |
| 1777531504 | 15° C | 53% | 913.8 hPa | - | - | - | - |
| 1777530604 | 15° C | 53% | 913.9 hPa | - | - | - | - |
| 1777529708 | 15° C | 53% | 913.9 hPa | - | - | - | - |
| 1777528804 | 15.56° C | 53% | 914 hPa | - | - | - | - |
| 1777527004 | 15.56° C | 52% | 913.9 hPa | - | - | - | - |
| 1777526103 | 15.56° C | 52% | 913.9 hPa | - | - | - | - |
| 1777525204 | 16.11° C | 51% | 913.9 hPa | - | - | - | - |
| 1777524310 | 16.11° C | 51% | 913.8 hPa | - | - | - | - |
| 1777523410 | -17.78° C | 51% | 913.9 hPa | - | - | - | - |
| 1777522506 | 16.67° C | 51% | 914 hPa | - | - | - | - |
| 1777521611 | -17.78° C | 51% | 914 hPa | - | - | - | - |
| 1777520705 | 16.67° C | 51% | 914.2 hPa | - | - | - | - |
| 1777519805 | 17.22° C | 51% | 914.3 hPa | - | - | - | - |
| 1777518903 | 17.22° C | 51% | 914.5 hPa | - | - | - | - |
| 1777517105 | 17.22° C | 51% | 914.6 hPa | - | - | - | - |
| 1777516210 | 17.22° C | 50% | 914.7 hPa | - | - | - | - |
| 1777515304 | 17.22° C | 50% | 914.7 hPa | - | - | - | - |
| 1777514408 | 17.78° C | 49% | 914.7 hPa | - | - | - | - |
| 1777513503 | 17.78° C | 49% | 914.7 hPa | - | - | - | - |
| 1777511704 | 17.78° C | 48% | 915.1 hPa | - | - | - | - |
* Rain since midnight (hover to see other rain measurements)
** Current wind speed in m/s (hover to see current wind gust speed)